STARLINK-1638

decayed
NORAD ID: 46134 Int'l Des: 2020-057 Owner: SPXS Country: US Constellation: starlink
LEOCIRCULAR
Group

About STARLINK-1638

Description loading...

Altitude History

Altitude vs Time

uPlot chart will show altitude changes over time

Two-Line Element Set

1 46134U 20057T 23333.65834697 .23154824 12201-4 38189-2 0 9994
2 46134 53.0255 358.7940 0005581 63.3554 39.2219 16.32603748182705
Epoch: Nov 29, 2023 • Age: 15747 hours

Current Status

Position data unavailable
Launch Date Aug 18, 2020
Age 5 years
Decay Date Nov 29, 2023
Type internet

Technical Details

Classification Payload
Mass 260.00 kg
Dry Mass 248.00 kg
Total Mass 260.00 kg
Length 0.20 m
Diameter 2.80 m
Span 9.00 m
Shape Box + pan
Manufacturer SPXS
Bus Type Starlink
Phase Status Reentered
Owner/State SPXS/US

Large Constellations

Loading constellations...